TimeEST,TemperatureF,Dew PointF,Humidity,Sea Level PressureIn,VisibilityMPH,Wind Direction,Wind SpeedMPH,Gust SpeedMPH,PrecipitationIn,Events,Conditions,WindDirDegrees,DateUTC
12:14 AM,25.5,23.0,90,29.90,7.0,East,4.6,-,N/A,,Overcast,80,2012-12-29 05:14:00
12:34 AM,25.5,23.0,90,29.89,7.0,ENE,4.6,-,N/A,,Overcast,70,2012-12-29 05:34:00
12:54 AM,25.5,23.0,90,29.89,7.0,ENE,4.6,-,N/A,,Overcast,60,2012-12-29 05:54:00
1:14 AM,25.3,23.0,91,29.89,7.0,NE,3.5,-,N/A,,Overcast,50,2012-12-29 06:14:00
1:34 AM,25.3,23.0,91,29.88,7.0,Calm,Calm,-,N/A,,Overcast,0,2012-12-29 06:34:00
1:54 AM,25.3,23.0,91,29.87,7.0,ENE,4.6,-,N/A,,Overcast,60,2012-12-29 06:54:00
2:14 AM,25.5,23.4,92,29.87,7.0,NE,4.6,-,N/A,,Overcast,50,2012-12-29 07:14:00
2:34 AM,25.3,23.2,91,29.86,7.0,NE,4.6,-,N/A,,Overcast,40,2012-12-29 07:34:00
2:54 AM,25.3,23.0,91,29.85,7.0,NE,4.6,-,N/A,,Overcast,50,2012-12-29 07:54:00
3:14 AM,25.3,23.0,91,29.85,7.0,NE,3.5,-,N/A,,Scattered Clouds,50,2012-12-29 08:14:00
3:34 AM,25.3,23.0,91,29.85,7.0,ENE,5.8,-,N/A,,Clear,60,2012-12-29 08:34:00
3:54 AM,25.2,23.0,91,29.84,5.0,NE,4.6,-,N/A,,Mostly Cloudy,40,2012-12-29 08:54:00
4:14 AM,25.3,23.4,92,29.84,5.0,NE,5.8,-,N/A,,Overcast,40,2012-12-29 09:14:00
4:34 AM,25.3,23.4,92,29.84,4.0,NE,5.8,-,N/A,,Overcast,50,2012-12-29 09:34:00
4:54 AM,25.3,23.0,91,29.83,4.0,NE,4.6,-,N/A,,Overcast,40,2012-12-29 09:54:00
5:15 AM,25.3,23.0,91,29.83,5.0,NE,3.5,-,N/A,,Overcast,40,2012-12-29 10:15:00
5:34 AM,25.3,23.0,91,29.83,5.0,NE,4.6,-,N/A,,Overcast,40,2012-12-29 10:34:00
5:54 AM,25.3,23.0,91,29.83,5.0,NNE,4.6,-,N/A,,Overcast,30,2012-12-29 10:54:00
6:15 AM,25.3,23.0,91,29.83,7.0,NNE,3.5,-,N/A,,Overcast,20,2012-12-29 11:15:00
6:34 AM,25.5,23.4,92,29.83,7.0,NE,3.5,-,N/A,,Overcast,40,2012-12-29 11:34:00
7:15 AM,25.7,23.5,92,29.83,7.0,NNE,3.5,-,N/A,,Overcast,30,2012-12-29 12:15:00
7:34 AM,25.7,23.4,91,29.83,7.0,North,3.5,-,N/A,,Overcast,10,2012-12-29 12:34:00
8:15 AM,25.5,23.0,90,29.82,5.0,NNE,3.5,-,N/A,,Overcast,20,2012-12-29 13:15:00
8:34 AM,25.5,23.0,90,29.82,5.0,NNE,4.6,-,N/A,,Overcast,20,2012-12-29 13:34:00
8:54 AM,25.3,23.0,91,29.82,5.0,NNE,3.5,-,N/A,,Overcast,20,2012-12-29 13:54:00
9:15 AM,25.5,23.0,90,29.82,5.0,North,4.6,-,N/A,,Overcast,10,2012-12-29 14:15:00
9:34 AM,25.0,22.5,90,29.82,3.0,NNE,4.6,-,N/A,Snow,Light Snow,20,2012-12-29 14:34:00
9:54 AM,25.3,22.6,89,29.84,7.0,North,4.6,-,N/A,Snow,Light Snow,360,2012-12-29 14:54:00
10:15 AM,26.1,22.6,87,29.84,10.0,North,5.8,-,N/A,,Overcast,360,2012-12-29 15:15:00
10:34 AM,26.4,22.6,86,29.85,10.0,NNE,6.9,-,N/A,,Overcast,20,2012-12-29 15:34:00
10:54 AM,26.4,22.6,86,29.85,5.0,NNE,6.9,-,N/A,Snow,Light Snow,20,2012-12-29 15:54:00
11:14 AM,26.6,23.0,86,29.85,5.0,North,5.8,-,N/A,Snow,Light Snow,360,2012-12-29 16:14:00
11:34 AM,26.6,23.0,86,29.85,7.0,North,6.9,-,N/A,Snow,Light Snow,350,2012-12-29 16:34:00
11:55 AM,27.3,23.4,85,29.85,10.0,NNW,6.9,-,N/A,,Overcast,340,2012-12-29 16:55:00
12:14 PM,27.3,23.4,85,29.84,10.0,NNW,6.9,-,N/A,,Overcast,340,2012-12-29 17:14:00
12:34 PM,27.5,23.4,84,29.84,7.0,North,5.8,-,N/A,Snow,Light Snow,350,2012-12-29 17:34:00
12:55 PM,27.5,23.4,84,29.83,5.0,NNW,4.6,-,N/A,Snow,Light Snow,340,2012-12-29 17:55:00
1:14 PM,27.5,23.5,85,29.83,4.0,NNW,5.8,-,N/A,Snow,Light Snow,330,2012-12-29 18:14:00
1:54 PM,28.4,23.9,83,29.84,3.0,NW,5.8,-,N/A,Snow,Light Snow,320,2012-12-29 18:54:00
2:14 PM,28.4,23.2,81,29.84,4.0,NW,5.8,-,N/A,Snow,Light Snow,320,2012-12-29 19:14:00
2:35 PM,28.4,23.4,81,29.85,3.0,NW,3.5,-,N/A,Snow,Light Snow,310,2012-12-29 19:35:00
2:54 PM,28.8,23.0,79,29.85,4.0,North,5.8,-,N/A,Snow,Light Snow,350,2012-12-29 19:54:00
3:15 PM,28.8,23.9,82,29.86,2.5,NW,6.9,-,N/A,Snow,Light Snow,310,2012-12-29 20:15:00
3:35 PM,28.4,24.3,84,29.87,2.5,NW,6.9,-,N/A,Snow,Light Snow,320,2012-12-29 20:35:00
3:54 PM,28.4,24.1,84,29.88,3.0,NW,5.8,-,N/A,Snow,Light Snow,320,2012-12-29 20:54:00
4:15 PM,28.4,24.1,84,29.89,5.0,NW,9.2,-,N/A,Snow,Light Snow,310,2012-12-29 21:15:00
4:35 PM,28.2,23.4,82,29.90,5.0,NW,8.1,-,N/A,,Haze,320,2012-12-29 21:35:00
4:54 PM,28.2,23.5,83,29.90,7.0,NW,4.6,-,N/A,,Overcast,320,2012-12-29 21:54:00
5:15 PM,28.2,22.6,80,29.91,10.0,NW,5.8,-,N/A,,Overcast,310,2012-12-29 22:15:00
5:35 PM,28.2,23.0,81,29.92,10.0,WNW,5.8,-,N/A,,Overcast,290,2012-12-29 22:35:00
6:15 PM,28.0,22.6,80,29.93,10.0,WNW,4.6,-,N/A,,Overcast,290,2012-12-29 23:15:00
6:35 PM,27.9,22.8,81,29.94,10.0,WNW,4.6,-,N/A,,Overcast,290,2012-12-29 23:35:00
6:54 PM,28.2,21.7,77,29.95,10.0,NNW,10.4,-,N/A,,Overcast,330,2012-12-29 23:54:00
7:15 PM,27.9,21.0,75,29.96,10.0,NNW,9.2,-,N/A,,Overcast,330,2012-12-30 00:15:00
7:34 PM,27.1,20.3,75,29.96,10.0,NW,6.9,-,N/A,,Overcast,320,2012-12-30 00:34:00
7:54 PM,26.8,19.9,75,29.96,10.0,NW,8.1,-,N/A,,Overcast,320,2012-12-30 00:54:00
8:15 PM,26.2,19.8,76,29.97,10.0,WNW,4.6,-,N/A,,Overcast,300,2012-12-30 01:15:00
8:34 PM,25.7,19.4,77,29.98,10.0,West,4.6,-,N/A,,Overcast,280,2012-12-30 01:34:00
8:54 PM,24.8,19.2,79,29.99,10.0,West,3.5,-,N/A,,Mostly Cloudy,280,2012-12-30 01:54:00
9:15 PM,24.3,19.2,81,30.00,10.0,West,4.6,-,N/A,,Scattered Clouds,280,2012-12-30 02:15:00
9:54 PM,22.8,18.5,83,30.01,10.0,West,3.5,-,N/A,,Scattered Clouds,270,2012-12-30 02:54:00
10:15 PM,22.1,18.5,86,30.02,10.0,West,4.6,-,N/A,,Clear,270,2012-12-30 03:15:00
10:34 PM,22.1,18.5,86,30.02,10.0,Calm,Calm,-,N/A,,Clear,0,2012-12-30 03:34:00
10:54 PM,21.2,18.3,89,30.03,10.0,West,3.5,-,N/A,,Clear,260,2012-12-30 03:54:00
11:15 PM,21.6,18.5,88,30.04,10.0,West,3.5,-,N/A,,Scattered Clouds,260,2012-12-30 04:15:00
11:34 PM,20.7,17.8,89,30.05,10.0,Calm,Calm,-,N/A,,Scattered Clouds,0,2012-12-30 04:34:00
11:54 PM,21.2,18.3,89,30.06,10.0,Calm,Calm,-,N/A,,Scattered Clouds,0,2012-12-30 04:54:00